CHB6329 ZHCC-ZJHK

Flight info

Callsign CHB6329
Flight time 2h 37m
Altitude 38100
Route DUDBI W37 OLMIB W83 GOSMA R343 LBN/K0845S1190 W159 BHY W70 NYB
Aircraft A20N/M-SDE2E3FGHIRWXY/LB1

Departure

Time 2026-04-23 09:46
Airport Zhengzhou Xinzheng International Airport (ZHCC)

Arrival

Time 2026-04-23 12:23
Airport Haikou Meilan International Airport (ZJHK)
Time Latitude Longitude Altitude Speed Heading
2026-04-23 08:51 34.52945 113.85381 486 ft 0 kts 295°
2026-04-23 08:53 34.52945 113.85382 486 ft 0 kts 295°
2026-04-23 08:53 34.52944 113.85382 486 ft 0 kts 295°
2026-04-23 09:01 34.52944 113.85383 486 ft 0 kts 296°
2026-04-23 09:04 34.52943 113.85383 486 ft 0 kts 296°
2026-04-23 09:09 34.52943 113.85384 486 ft 0 kts 296°
2026-04-23 09:21 34.52942 113.85384 486 ft 0 kts 297°
2026-04-23 09:34 34.52942 113.85385 486 ft 0 kts 297°
2026-04-23 09:35 34.52937 113.85397 485 ft 2 kts 297°
2026-04-23 09:35 34.52930 113.85413 484 ft 2 kts 297°
2026-04-23 09:35 34.52923 113.85430 483 ft 2 kts 297°
2026-04-23 09:35 34.52915 113.85446 483 ft 2 kts 321°
2026-04-23 09:36 34.52902 113.85455 483 ft 2 kts 351°
2026-04-23 09:36 34.52889 113.85454 482 ft 0 kts 18°
2026-04-23 09:36 34.52882 113.85451 482 ft 1 kts 23°
2026-04-23 09:36 34.52881 113.85450 483 ft 0 kts 22°
2026-04-23 09:39 34.52885 113.85452 482 ft 1 kts 22°
2026-04-23 09:39 34.52899 113.85459 482 ft 2 kts 22°
2026-04-23 09:39 34.52919 113.85469 483 ft 3 kts 22°
2026-04-23 09:40 34.52947 113.85483 483 ft 4 kts 22°
2026-04-23 09:40 34.52981 113.85500 482 ft 6 kts 22°
2026-04-23 09:40 34.53027 113.85523 482 ft 8 kts 23°
2026-04-23 09:40 34.53083 113.85551 482 ft 9 kts 23°
2026-04-23 09:41 34.53146 113.85564 483 ft 9 kts 341°
2026-04-23 09:41 34.53178 113.85510 485 ft 6 kts 292°
2026-04-23 09:41 34.53194 113.85463 488 ft 6 kts 292°
2026-04-23 09:41 34.53216 113.85399 491 ft 9 kts 292°
2026-04-23 09:42 34.53244 113.85315 495 ft 11 kts 292°
2026-04-23 09:42 34.53281 113.85207 498 ft 15 kts 292°
2026-04-23 09:42 34.53323 113.85084 497 ft 16 kts 292°
2026-04-23 09:42 34.53365 113.84961 499 ft 15 kts 293°
2026-04-23 09:43 34.53406 113.84840 499 ft 16 kts 292°
2026-04-23 09:43 34.53448 113.84718 503 ft 14 kts 292°
2026-04-23 09:43 34.53484 113.84609 506 ft 12 kts 292°
2026-04-23 09:43 34.53515 113.84519 509 ft 12 kts 292°
2026-04-23 09:44 34.53556 113.84401 511 ft 17 kts 293°
2026-04-23 09:44 34.53601 113.84267 512 ft 16 kts 292°
2026-04-23 09:44 34.53645 113.84135 512 ft 17 kts 292°
2026-04-23 09:44 34.53695 113.83996 507 ft 15 kts 302°
2026-04-23 09:45 34.53785 113.83987 507 ft 13 kts 23°
2026-04-23 09:45 34.53871 113.84029 509 ft 12 kts 22°
2026-04-23 09:45 34.53936 113.84088 510 ft 11 kts 80°
2026-04-23 09:45 34.53925 113.84140 511 ft 0 kts 112°
2026-04-23 09:46 34.53887 113.84254 512 ft 47 kts 113°
2026-04-23 09:46 34.53666 113.84907 503 ft 117 kts 113°
2026-04-23 09:46 34.53268 113.86044 501 ft 170 kts 113°
2026-04-23 09:46 34.52811 113.87367 1152 ft 167 kts 115°
2026-04-23 09:47 34.52375 113.88670 1852 ft 169 kts 115°
2026-04-23 09:47 34.51883 113.89946 2484 ft 172 kts 118°
2026-04-23 09:47 34.51517 113.90929 2948 ft 174 kts 115°
2026-04-23 09:47 34.51055 113.92289 3577 ft 176 kts 114°
2026-04-23 09:48 34.50577 113.93706 4041 ft 189 kts 113°
2026-04-23 09:48 34.50055 113.95238 4451 ft 206 kts 113°
2026-04-23 09:48 34.49475 113.96921 4781 ft 229 kts 113°
2026-04-23 09:48 34.48835 113.98769 5243 ft 248 kts 112°
2026-04-23 09:49 34.48137 114.00779 5752 ft 266 kts 112°
2026-04-23 09:49 34.47412 114.02863 6417 ft 276 kts 112°
2026-04-23 09:49 34.46426 114.04856 7208 ft 283 kts 133°
2026-04-23 09:49 34.44776 114.06185 8045 ft 288 kts 160°
2026-04-23 09:50 34.42813 114.06606 8856 ft 293 kts 173°
2026-04-23 09:50 34.40764 114.06836 9435 ft 296 kts 173°
2026-04-23 09:50 34.38720 114.07067 9741 ft 297 kts 173°
2026-04-23 09:50 34.36636 114.07315 9789 ft 296 kts 172°
2026-04-23 09:51 34.34587 114.07568 9795 ft 296 kts 172°
2026-04-23 09:51 34.32563 114.07973 9790 ft 295 kts 163°
2026-04-23 09:51 34.30603 114.08822 10040 ft 301 kts 154°
2026-04-23 09:51 34.28682 114.09921 10642 ft 311 kts 152°
2026-04-23 09:52 34.26671 114.11111 11030 ft 329 kts 152°
2026-04-23 09:52 34.24567 114.12353 11363 ft 347 kts 152°
2026-04-23 09:52 34.22323 114.13660 11678 ft 365 kts 153°
2026-04-23 09:52 34.19966 114.15022 12155 ft 376 kts 153°
2026-04-23 09:53 34.17598 114.16387 12819 ft 381 kts 153°
2026-04-23 09:53 34.15207 114.17763 13499 ft 385 kts 153°
2026-04-23 09:53 34.12764 114.19170 14136 ft 390 kts 154°
2026-04-23 09:53 34.10325 114.20573 14760 ft 395 kts 154°
2026-04-23 09:54 34.07833 114.22004 15389 ft 399 kts 154°
2026-04-23 09:54 34.05276 114.23472 16006 ft 403 kts 154°
2026-04-23 09:54 34.02743 114.24925 16594 ft 407 kts 154°
2026-04-23 09:54 34.00179 114.26395 17167 ft 410 kts 154°
2026-04-23 09:55 33.97562 114.27894 17736 ft 414 kts 154°
2026-04-23 09:55 33.94967 114.29381 18281 ft 418 kts 155°
2026-04-23 09:55 33.92327 114.30892 18859 ft 421 kts 155°
2026-04-23 09:55 33.89659 114.32419 19409 ft 424 kts 155°
2026-04-23 09:56 33.86999 114.33939 19942 ft 427 kts 155°
2026-04-23 09:56 33.84269 114.35498 20478 ft 430 kts 155°
2026-04-23 09:56 33.83279 114.36063 20693 ft 431 kts 155°
2026-04-23 09:56 33.80648 114.37558 21226 ft 434 kts 155°
2026-04-23 09:57 33.77940 114.39101 21765 ft 436 kts 155°
2026-04-23 09:57 33.75195 114.40668 22259 ft 439 kts 155°
2026-04-23 09:57 33.72403 114.42260 22757 ft 442 kts 155°
2026-04-23 09:57 33.69629 114.43842 23208 ft 445 kts 155°
2026-04-23 09:58 33.66798 114.45454 23642 ft 449 kts 156°
2026-04-23 09:58 33.63936 114.47083 24071 ft 452 kts 156°
2026-04-23 09:58 33.61102 114.48695 24478 ft 455 kts 156°
2026-04-23 09:58 33.58212 114.50334 24896 ft 458 kts 157°
2026-04-23 09:59 33.55303 114.51981 25311 ft 461 kts 157°
2026-04-23 09:59 33.52396 114.53625 25701 ft 464 kts 157°
2026-04-23 09:59 33.49454 114.55290 26101 ft 467 kts 157°
2026-04-23 09:59 33.46525 114.56947 26489 ft 469 kts 158°
2026-04-23 10:00 33.43542 114.58632 26852 ft 472 kts 158°
2026-04-23 10:00 33.40556 114.60317 27211 ft 474 kts 158°
2026-04-23 10:00 33.37583 114.61994 27542 ft 477 kts 158°
2026-04-23 10:00 33.34565 114.63697 27857 ft 479 kts 158°
2026-04-23 10:01 33.31567 114.65386 28149 ft 481 kts 159°
2026-04-23 10:01 33.28500 114.67112 28440 ft 482 kts 159°
2026-04-23 10:01 33.25462 114.68798 28811 ft 480 kts 161°
2026-04-23 10:01 33.22348 114.70095 29179 ft 473 kts 170°
2026-04-23 10:02 33.19105 114.70870 29541 ft 466 kts 178°
2026-04-23 10:02 33.15878 114.71104 29894 ft 458 kts 186°
2026-04-23 10:02 33.12722 114.70895 30220 ft 454 kts 190°
2026-04-23 10:02 33.09568 114.70570 30532 ft 452 kts 191°
2026-04-23 10:03 33.06449 114.70235 30839 ft 450 kts 191°
2026-04-23 10:03 33.03315 114.69904 31154 ft 449 kts 191°
2026-04-23 10:03 33.00211 114.69586 31449 ft 447 kts 191°
2026-04-23 10:03 32.97100 114.69273 31743 ft 446 kts 191°
2026-04-23 10:04 32.94000 114.68967 32033 ft 444 kts 192°
2026-04-23 10:04 32.90926 114.68665 32308 ft 442 kts 192°
2026-04-23 10:04 32.87877 114.68366 32604 ft 440 kts 192°
2026-04-23 10:04 32.84833 114.68079 32891 ft 438 kts 192°
2026-04-23 10:05 32.81788 114.67794 33164 ft 437 kts 192°
2026-04-23 10:05 32.78736 114.67509 33430 ft 435 kts 193°
2026-04-23 10:05 32.75702 114.67223 33670 ft 434 kts 193°
2026-04-23 10:05 32.72695 114.66939 33859 ft 434 kts 193°
2026-04-23 10:06 32.69657 114.66651 34031 ft 434 kts 193°
2026-04-23 10:06 32.66657 114.66367 34219 ft 433 kts 193°
2026-04-23 10:06 32.63662 114.66085 34410 ft 432 kts 193°
2026-04-23 10:06 32.60634 114.65799 34579 ft 432 kts 193°
2026-04-23 10:07 32.57619 114.65513 34735 ft 432 kts 193°
2026-04-23 10:07 32.54615 114.65230 34882 ft 433 kts 193°
2026-04-23 10:07 32.51637 114.64949 35060 ft 432 kts 193°
2026-04-23 10:07 32.48655 114.64668 35240 ft 431 kts 193°
2026-04-23 10:08 32.45627 114.64381 35382 ft 431 kts 193°
2026-04-23 10:08 32.42638 114.64100 35531 ft 431 kts 194°
2026-04-23 10:08 32.39646 114.63819 35708 ft 431 kts 194°
2026-04-23 10:09 32.33670 114.63249 36060 ft 430 kts 194°
2026-04-23 10:09 32.30704 114.62961 36245 ft 429 kts 194°
2026-04-23 10:09 32.27673 114.62667 36396 ft 429 kts 194°
2026-04-23 10:09 32.24677 114.62374 36494 ft 430 kts 194°
2026-04-23 10:10 32.21703 114.62085 36611 ft 431 kts 194°
2026-04-23 10:10 32.18719 114.61794 36736 ft 431 kts 194°
2026-04-23 10:10 32.12689 114.61209 36891 ft 433 kts 194°
2026-04-23 10:11 32.06696 114.60626 37124 ft 433 kts 194°
2026-04-23 10:11 32.03688 114.60335 37245 ft 433 kts 194°
2026-04-23 10:11 32.00672 114.60044 37313 ft 433 kts 194°
2026-04-23 10:12 31.94627 114.59460 37463 ft 434 kts 194°
2026-04-23 10:12 31.91626 114.59168 37592 ft 435 kts 194°
2026-04-23 10:12 31.88574 114.58871 37672 ft 435 kts 194°
2026-04-23 10:13 31.82465 114.58282 37859 ft 434 kts 194°
2026-04-23 10:13 31.76394 114.57696 37956 ft 435 kts 194°
2026-04-23 10:14 31.70367 114.57114 38063 ft 435 kts 194°
2026-04-23 10:14 31.64296 114.56530 38114 ft 435 kts 194°
2026-04-23 10:15 31.58193 114.55950 38118 ft 436 kts 194°
2026-04-23 10:15 31.52157 114.55376 38117 ft 435 kts 194°
2026-04-23 10:16 31.46073 114.54793 38117 ft 435 kts 194°
2026-04-23 10:16 31.40030 114.54215 38118 ft 434 kts 194°
2026-04-23 10:17 31.34029 114.53643 38116 ft 433 kts 194°
2026-04-23 10:17 31.27995 114.53005 38116 ft 429 kts 198°
2026-04-23 10:18 31.22265 114.51354 38111 ft 415 kts 209°
2026-04-23 10:18 31.17034 114.48663 38107 ft 407 kts 214°
2026-04-23 10:19 31.11898 114.45807 38105 ft 406 kts 214°
2026-04-23 10:19 31.06801 114.42972 38105 ft 406 kts 214°
2026-04-23 10:20 31.01684 114.40130 38103 ft 406 kts 214°
2026-04-23 10:20 30.96656 114.37341 38102 ft 405 kts 214°
2026-04-23 10:21 30.91531 114.34515 38105 ft 406 kts 213°
2026-04-23 10:21 30.86373 114.31815 38092 ft 406 kts 213°
2026-04-23 10:22 30.81204 114.29121 38095 ft 403 kts 213°
2026-04-23 10:22 30.76102 114.26368 38112 ft 400 kts 214°
2026-04-23 10:23 30.71016 114.23595 38116 ft 400 kts 214°
2026-04-23 10:23 30.66000 114.20863 38114 ft 399 kts 214°
2026-04-23 10:24 30.60940 114.18117 38115 ft 399 kts 214°
2026-04-23 10:24 30.55931 114.15405 38112 ft 398 kts 214°
2026-04-23 10:25 30.50863 114.12667 38113 ft 399 kts 214°
2026-04-23 10:25 30.45836 114.09956 38112 ft 397 kts 214°
2026-04-23 10:26 30.40818 114.07253 38113 ft 396 kts 215°
2026-04-23 10:26 30.35823 114.04558 38109 ft 395 kts 215°
2026-04-23 10:27 30.30826 114.01862 38110 ft 394 kts 215°
2026-04-23 10:27 30.25839 113.99178 38110 ft 394 kts 215°
2026-04-23 10:28 30.20861 113.96510 38107 ft 393 kts 215°
2026-04-23 10:28 30.15845 113.93831 38104 ft 393 kts 214°
2026-04-23 10:29 30.10903 113.91190 38103 ft 392 kts 215°
2026-04-23 10:29 30.05921 113.88524 38104 ft 391 kts 214°
2026-04-23 10:30 30.00990 113.85892 38102 ft 391 kts 215°
2026-04-23 10:30 29.96030 113.83245 38100 ft 390 kts 215°
2026-04-23 10:31 29.91184 113.80412 38095 ft 384 kts 219°
2026-04-23 10:31 29.86671 113.77153 38100 ft 378 kts 223°
2026-04-23 10:32 29.82488 113.73492 38100 ft 373 kts 227°
2026-04-23 10:32 29.78609 113.69503 38097 ft 372 kts 229°
2026-04-23 10:33 29.74795 113.65509 38096 ft 371 kts 230°
2026-04-23 10:33 29.70958 113.61481 38098 ft 371 kts 230°
2026-04-23 10:34 29.67130 113.57460 38099 ft 370 kts 230°
2026-04-23 10:34 29.63322 113.53464 38099 ft 371 kts 230°
2026-04-23 10:35 29.59522 113.49471 38100 ft 370 kts 230°
2026-04-23 10:35 29.55686 113.45447 38099 ft 371 kts 230°
2026-04-23 10:36 29.51866 113.41443 38098 ft 370 kts 230°
2026-04-23 10:36 29.48064 113.37465 38098 ft 370 kts 230°
2026-04-23 10:37 29.44243 113.33464 38105 ft 370 kts 230°
2026-04-23 10:37 29.40403 113.29451 38100 ft 370 kts 230°
2026-04-23 10:38 29.36571 113.25511 38102 ft 372 kts 227°
2026-04-23 10:38 29.32444 113.21875 38100 ft 376 kts 224°
2026-04-23 10:39 29.28159 113.18386 38100 ft 375 kts 224°
2026-04-23 10:39 29.23889 113.14900 38101 ft 374 kts 224°
2026-04-23 10:40 29.19651 113.11455 38102 ft 374 kts 224°
2026-04-23 10:40 29.15381 113.07987 38101 ft 374 kts 224°
2026-04-23 10:41 29.11103 113.04518 38101 ft 374 kts 224°
2026-04-23 10:41 29.06849 113.01077 38101 ft 375 kts 224°
2026-04-23 10:42 29.02590 112.97630 38102 ft 373 kts 224°
2026-04-23 10:42 28.98331 112.94190 38106 ft 373 kts 224°
2026-04-23 10:43 28.94116 112.90788 38107 ft 371 kts 224°
2026-04-23 10:43 28.89860 112.87357 38104 ft 373 kts 225°
2026-04-23 10:44 28.85693 112.83999 38093 ft 372 kts 224°
2026-04-23 10:44 28.81505 112.80630 38087 ft 372 kts 224°
2026-04-23 10:45 28.77264 112.77226 38082 ft 373 kts 225°
2026-04-23 10:45 28.73002 112.73798 38085 ft 372 kts 224°
2026-04-23 10:46 28.68765 112.70404 38083 ft 373 kts 225°
2026-04-23 10:46 28.64491 112.66975 38081 ft 372 kts 225°
2026-04-23 10:47 28.60250 112.63578 38076 ft 371 kts 224°
2026-04-23 10:47 28.56187 112.60328 38081 ft 371 kts 224°
2026-04-23 10:48 28.52037 112.57013 38085 ft 371 kts 224°
2026-04-23 10:48 28.47796 112.53628 38082 ft 371 kts 224°
2026-04-23 10:49 28.43571 112.50258 38083 ft 370 kts 224°
2026-04-23 10:49 28.39363 112.46904 38086 ft 370 kts 225°
2026-04-23 10:50 28.35125 112.43532 38082 ft 370 kts 225°
2026-04-23 10:50 28.30852 112.40131 38085 ft 371 kts 225°
2026-04-23 10:51 28.26641 112.36783 38090 ft 369 kts 225°
2026-04-23 10:51 28.22393 112.33406 38090 ft 368 kts 224°
2026-04-23 10:52 28.18175 112.30063 38086 ft 369 kts 225°
2026-04-23 10:52 28.13975 112.26679 38089 ft 368 kts 225°
2026-04-23 10:53 28.09798 112.23286 38091 ft 368 kts 225°
2026-04-23 10:53 28.05544 112.20023 38087 ft 372 kts 222°
2026-04-23 10:54 28.01102 112.16949 38093 ft 373 kts 222°
2026-04-23 10:54 27.96682 112.13890 38094 ft 372 kts 222°
2026-04-23 10:55 27.92247 112.10793 38095 ft 373 kts 222°
2026-04-23 10:55 27.87824 112.07692 38093 ft 373 kts 223°
2026-04-23 10:56 27.83379 112.04582 38096 ft 373 kts 223°
2026-04-23 10:56 27.78938 112.01478 38096 ft 373 kts 222°
2026-04-23 10:57 27.74521 111.98397 38095 ft 373 kts 222°
2026-04-23 10:57 27.70096 111.95316 38094 ft 374 kts 222°
2026-04-23 10:58 27.65622 111.92198 38100 ft 374 kts 222°
2026-04-23 10:58 27.61174 111.89096 38110 ft 374 kts 222°
2026-04-23 10:59 27.56716 111.85990 38121 ft 374 kts 223°
2026-04-23 10:59 27.52289 111.82912 38130 ft 376 kts 222°
2026-04-23 11:00 27.47811 111.79802 38140 ft 375 kts 222°
2026-04-23 11:00 27.43343 111.76711 38139 ft 375 kts 222°
2026-04-23 11:01 27.38887 111.73624 38136 ft 376 kts 222°
2026-04-23 11:01 27.34410 111.70527 38124 ft 378 kts 222°
2026-04-23 11:02 27.29908 111.67410 38115 ft 378 kts 223°
2026-04-23 11:02 27.25431 111.64311 38109 ft 379 kts 223°
2026-04-23 11:03 27.20952 111.61214 38108 ft 378 kts 222°
2026-04-23 11:03 27.16430 111.58109 38109 ft 380 kts 221°
2026-04-23 11:04 27.11857 111.55098 38107 ft 380 kts 221°
2026-04-23 11:04 27.07282 111.52093 38107 ft 380 kts 221°
2026-04-23 11:05 27.02709 111.49084 38106 ft 380 kts 221°
2026-04-23 11:05 26.98144 111.46079 38107 ft 380 kts 221°
2026-04-23 11:06 26.91268 111.41511 38105 ft 378 kts 223°
2026-04-23 11:07 26.86846 111.38268 38106 ft 379 kts 224°
2026-04-23 11:07 26.82389 111.35005 38110 ft 380 kts 224°
2026-04-23 11:08 26.77922 111.31731 38111 ft 380 kts 223°
2026-04-23 11:08 26.73479 111.28468 38116 ft 379 kts 223°
2026-04-23 11:09 26.69059 111.25230 38112 ft 381 kts 224°
2026-04-23 11:09 26.64603 111.21963 38113 ft 380 kts 223°
2026-04-23 11:10 26.60146 111.18703 38113 ft 381 kts 223°
2026-04-23 11:10 26.55688 111.15533 38113 ft 383 kts 221°
2026-04-23 11:11 26.51094 111.12422 38112 ft 383 kts 222°
2026-04-23 11:11 26.46499 111.09299 38112 ft 385 kts 222°
2026-04-23 11:12 26.41916 111.06181 38111 ft 385 kts 222°
2026-04-23 11:12 26.37331 111.03057 38108 ft 386 kts 222°
2026-04-23 11:13 26.32728 110.99922 38105 ft 386 kts 221°
2026-04-23 11:13 26.28123 110.96790 38102 ft 387 kts 222°
2026-04-23 11:14 26.23509 110.93655 38101 ft 387 kts 221°
2026-04-23 11:14 26.18867 110.90503 38104 ft 388 kts 222°
2026-04-23 11:15 26.14279 110.87386 38109 ft 387 kts 222°
2026-04-23 11:15 26.09640 110.84242 38116 ft 389 kts 222°
2026-04-23 11:16 26.04995 110.81094 38123 ft 389 kts 222°
2026-04-23 11:16 26.00355 110.77954 38141 ft 390 kts 221°
2026-04-23 11:17 25.95711 110.74803 38152 ft 390 kts 222°
2026-04-23 11:17 25.91057 110.71650 38139 ft 391 kts 221°
2026-04-23 11:18 25.86425 110.68508 38124 ft 391 kts 222°
2026-04-23 11:18 25.81724 110.65321 38111 ft 391 kts 221°
2026-04-23 11:19 25.77048 110.62157 38097 ft 392 kts 221°
2026-04-23 11:19 25.72401 110.58988 38093 ft 392 kts 222°
2026-04-23 11:20 25.67751 110.55751 38093 ft 393 kts 222°
2026-04-23 11:20 25.63102 110.52520 38097 ft 392 kts 222°
2026-04-23 11:21 25.58468 110.49303 38102 ft 392 kts 222°
2026-04-23 11:21 25.53861 110.46053 38105 ft 392 kts 224°
2026-04-23 11:22 25.49322 110.42683 38105 ft 393 kts 224°
2026-04-23 11:22 25.44749 110.39302 38095 ft 392 kts 224°
2026-04-23 11:23 25.40211 110.35954 38089 ft 393 kts 224°
2026-04-23 11:23 25.35632 110.32542 38081 ft 393 kts 224°
2026-04-23 11:24 25.31072 110.29147 38074 ft 393 kts 223°
2026-04-23 11:24 25.26516 110.25759 38065 ft 395 kts 224°
2026-04-23 11:25 25.21952 110.22362 38062 ft 396 kts 223°
2026-04-23 11:25 25.17368 110.18959 38060 ft 396 kts 223°
2026-04-23 11:26 25.12787 110.15544 38057 ft 395 kts 224°
2026-04-23 11:26 25.08213 110.12135 38055 ft 396 kts 224°
2026-04-23 11:27 25.03618 110.08710 38055 ft 397 kts 224°
2026-04-23 11:27 24.99028 110.05294 38054 ft 398 kts 224°
2026-04-23 11:28 24.94443 110.01882 38056 ft 397 kts 224°
2026-04-23 11:28 24.89881 109.98488 38061 ft 398 kts 223°
2026-04-23 11:29 24.85204 109.95016 38053 ft 399 kts 224°
2026-04-23 11:29 24.80579 109.91582 38056 ft 398 kts 223°
2026-04-23 11:30 24.75974 109.88168 38055 ft 398 kts 224°
2026-04-23 11:30 24.71358 109.84741 38048 ft 400 kts 224°
2026-04-23 11:31 24.66746 109.81327 38038 ft 399 kts 224°
2026-04-23 11:31 24.62110 109.77884 38033 ft 399 kts 223°
2026-04-23 11:32 24.57502 109.74460 38026 ft 401 kts 224°
2026-04-23 11:32 24.52864 109.71011 38026 ft 400 kts 224°
2026-04-23 11:33 24.48248 109.67578 38021 ft 400 kts 224°
2026-04-23 11:33 24.43591 109.64119 38023 ft 401 kts 224°
2026-04-23 11:34 24.38948 109.60674 38024 ft 401 kts 224°
2026-04-23 11:34 24.34306 109.57253 38025 ft 401 kts 224°
2026-04-23 11:35 24.29642 109.53822 38032 ft 402 kts 223°
2026-04-23 11:35 24.24969 109.50383 38033 ft 403 kts 224°
2026-04-23 11:36 24.20310 109.46954 38039 ft 404 kts 223°
2026-04-23 11:36 24.15645 109.43523 38038 ft 402 kts 224°
2026-04-23 11:37 24.10963 109.40080 38035 ft 402 kts 224°
2026-04-23 11:37 24.06339 109.36685 38030 ft 402 kts 224°
2026-04-23 11:38 24.01673 109.33260 38026 ft 403 kts 223°
2026-04-23 11:38 23.96956 109.29797 38021 ft 404 kts 223°
2026-04-23 11:39 23.92238 109.26340 38015 ft 404 kts 223°
2026-04-23 11:39 23.87514 109.22877 38014 ft 406 kts 223°
2026-04-23 11:40 23.82650 109.19518 38012 ft 415 kts 217°
2026-04-23 11:40 23.77190 109.17121 38010 ft 430 kts 206°
2026-04-23 11:41 23.71188 109.15953 38009 ft 447 kts 194°
2026-04-23 11:41 23.64809 109.16196 38009 ft 464 kts 184°
2026-04-23 11:42 23.58331 109.17050 38005 ft 464 kts 184°
2026-04-23 11:42 23.52018 109.17900 38002 ft 467 kts 183°
2026-04-23 11:43 23.45553 109.18762 37998 ft 465 kts 183°
2026-04-23 11:43 23.39080 109.19617 37998 ft 466 kts 183°
2026-04-23 11:44 23.32657 109.20465 37995 ft 465 kts 183°
2026-04-23 11:44 23.26185 109.21316 37998 ft 466 kts 183°
2026-04-23 11:45 23.19747 109.22161 37996 ft 465 kts 183°
2026-04-23 11:45 23.13261 109.23013 38000 ft 465 kts 183°
2026-04-23 11:46 23.06801 109.23859 38006 ft 464 kts 182°
2026-04-23 11:46 23.00380 109.24699 38009 ft 464 kts 182°
2026-04-23 11:47 22.93854 109.25551 38005 ft 465 kts 182°
2026-04-23 11:47 22.87533 109.26378 37997 ft 466 kts 182°
2026-04-23 11:48 22.80961 109.27234 37990 ft 466 kts 182°
2026-04-23 11:48 22.74523 109.28072 37980 ft 465 kts 182°
2026-04-23 11:49 22.68070 109.28915 37648 ft 465 kts 182°
2026-04-23 11:49 22.64858 109.29343 37346 ft 463 kts 182°
2026-04-23 11:49 22.61636 109.29772 37046 ft 459 kts 182°
2026-04-23 11:49 22.58459 109.30196 36746 ft 456 kts 182°
2026-04-23 11:50 22.55295 109.30612 36446 ft 456 kts 182°
2026-04-23 11:50 22.52125 109.31028 36152 ft 457 kts 182°
2026-04-23 11:50 22.48916 109.31451 35853 ft 457 kts 182°
2026-04-23 11:50 22.45736 109.31868 35554 ft 457 kts 181°
2026-04-23 11:51 22.42574 109.32282 35258 ft 457 kts 181°
2026-04-23 11:51 22.39403 109.32697 34966 ft 458 kts 181°
2026-04-23 11:51 22.36240 109.33112 34672 ft 459 kts 181°
2026-04-23 11:51 22.33056 109.33530 34377 ft 460 kts 181°
2026-04-23 11:52 22.29852 109.33949 34084 ft 461 kts 181°
2026-04-23 11:52 22.26654 109.34368 33794 ft 462 kts 181°
2026-04-23 11:52 22.23454 109.34789 33500 ft 462 kts 181°
2026-04-23 11:52 22.20200 109.35213 33206 ft 463 kts 181°
2026-04-23 11:53 22.16983 109.35631 32915 ft 464 kts 181°
2026-04-23 11:53 22.13756 109.36052 32631 ft 466 kts 181°
2026-04-23 11:53 22.10524 109.36472 32372 ft 466 kts 181°
2026-04-23 11:53 22.07283 109.36893 32116 ft 466 kts 181°
2026-04-23 11:54 22.04043 109.37315 31853 ft 467 kts 180°
2026-04-23 11:54 22.00796 109.37734 31595 ft 467 kts 180°
2026-04-23 11:54 21.97559 109.38155 31339 ft 468 kts 180°
2026-04-23 11:54 21.94271 109.38580 31082 ft 468 kts 180°
2026-04-23 11:55 21.91037 109.38998 30829 ft 469 kts 180°
2026-04-23 11:55 21.87843 109.39413 30577 ft 469 kts 180°
2026-04-23 11:55 21.84559 109.39838 30322 ft 470 kts 180°
2026-04-23 11:55 21.81303 109.40260 30069 ft 471 kts 180°
2026-04-23 11:56 21.78055 109.40678 29819 ft 471 kts 179°
2026-04-23 11:56 21.74798 109.41097 29566 ft 472 kts 180°
2026-04-23 11:56 21.71497 109.41524 29311 ft 471 kts 179°
2026-04-23 11:56 21.68180 109.41957 29059 ft 474 kts 179°
2026-04-23 11:57 21.64889 109.42542 28804 ft 477 kts 175°
2026-04-23 11:57 21.61630 109.43359 28555 ft 482 kts 171°
2026-04-23 11:57 21.58407 109.44418 28309 ft 486 kts 167°
2026-04-23 11:57 21.55193 109.45737 28060 ft 489 kts 162°
2026-04-23 11:58 21.52085 109.47288 27814 ft 491 kts 158°
2026-04-23 11:58 21.49072 109.49058 27569 ft 491 kts 155°
2026-04-23 11:58 21.46114 109.50897 27323 ft 490 kts 155°
2026-04-23 11:58 21.43154 109.52751 27074 ft 487 kts 155°
2026-04-23 11:59 21.40220 109.54582 26827 ft 485 kts 155°
2026-04-23 11:59 21.37270 109.56410 26580 ft 483 kts 155°
2026-04-23 11:59 21.34319 109.58148 26328 ft 478 kts 159°
2026-04-23 11:59 21.31261 109.59492 26074 ft 467 kts 167°
2026-04-23 12:00 21.28153 109.60398 25556 ft 456 kts 174°
2026-04-23 12:00 21.25055 109.60931 24903 ft 450 kts 178°
2026-04-23 12:00 21.21928 109.61375 24260 ft 446 kts 178°
2026-04-23 12:00 21.18884 109.61793 23662 ft 441 kts 178°
2026-04-23 12:01 21.15834 109.62215 23096 ft 436 kts 178°
2026-04-23 12:01 21.12837 109.62638 22514 ft 432 kts 178°
2026-04-23 12:01 21.09860 109.63062 21976 ft 428 kts 178°
2026-04-23 12:01 21.06879 109.63487 21418 ft 424 kts 178°
2026-04-23 12:02 21.03971 109.63902 20847 ft 421 kts 177°
2026-04-23 12:02 21.01076 109.64320 20290 ft 418 kts 177°
2026-04-23 12:02 20.98198 109.64734 19755 ft 414 kts 177°
2026-04-23 12:02 20.95314 109.65153 19199 ft 410 kts 177°
2026-04-23 12:03 20.92492 109.65559 18650 ft 406 kts 176°
2026-04-23 12:03 20.89654 109.65968 18096 ft 402 kts 176°
2026-04-23 12:03 20.86862 109.66371 17522 ft 399 kts 176°
2026-04-23 12:03 20.84118 109.66769 16960 ft 396 kts 176°
2026-04-23 12:04 20.81367 109.67165 16379 ft 394 kts 176°
2026-04-23 12:04 20.78645 109.67559 15807 ft 391 kts 176°
2026-04-23 12:04 20.75936 109.67950 15238 ft 389 kts 175°
2026-04-23 12:04 20.73259 109.68334 14672 ft 386 kts 175°
2026-04-23 12:05 20.70613 109.68717 14121 ft 383 kts 175°
2026-04-23 12:05 20.67936 109.69102 13559 ft 381 kts 175°
2026-04-23 12:05 20.65305 109.69482 13006 ft 378 kts 175°
2026-04-23 12:05 20.62691 109.69858 12449 ft 375 kts 175°
2026-04-23 12:06 20.60128 109.70226 11882 ft 370 kts 175°
2026-04-23 12:06 20.57573 109.70594 11164 ft 369 kts 175°
2026-04-23 12:06 20.52480 109.71328 10308 ft 356 kts 174°
2026-04-23 12:07 20.50112 109.72024 10084 ft 348 kts 159°
2026-04-23 12:07 20.48059 109.73374 9881 ft 340 kts 143°
2026-04-23 12:07 20.46283 109.74989 9697 ft 330 kts 141°
2026-04-23 12:07 20.44572 109.76611 9513 ft 320 kts 141°
2026-04-23 12:08 20.42939 109.78158 9338 ft 310 kts 141°
2026-04-23 12:08 20.41316 109.79681 9072 ft 304 kts 141°
2026-04-23 12:08 20.39734 109.81153 8729 ft 301 kts 141°
2026-04-23 12:08 20.38160 109.82612 8381 ft 299 kts 142°
2026-04-23 12:09 20.36570 109.84080 8026 ft 296 kts 141°
2026-04-23 12:09 20.35014 109.85516 7684 ft 293 kts 141°
2026-04-23 12:09 20.33469 109.86941 7332 ft 291 kts 141°
2026-04-23 12:09 20.31956 109.88335 6991 ft 288 kts 141°
2026-04-23 12:10 20.30427 109.89747 6640 ft 286 kts 141°
2026-04-23 12:10 20.28925 109.91129 6286 ft 284 kts 141°
2026-04-23 12:10 20.27418 109.92518 5934 ft 282 kts 141°
2026-04-23 12:10 20.25936 109.93878 5578 ft 280 kts 141°
2026-04-23 12:11 20.24460 109.95236 5225 ft 278 kts 140°
2026-04-23 12:11 20.22995 109.96582 4887 ft 275 kts 139°
2026-04-23 12:11 20.21545 109.97915 4562 ft 272 kts 139°
2026-04-23 12:11 20.20110 109.99236 4233 ft 269 kts 138°
2026-04-23 12:12 20.18689 110.00545 3893 ft 267 kts 137°
2026-04-23 12:12 20.17280 110.01839 3552 ft 265 kts 137°
2026-04-23 12:12 20.15886 110.03120 3207 ft 263 kts 136°
2026-04-23 12:12 20.14499 110.04397 3002 ft 261 kts 136°
2026-04-23 12:13 20.13109 110.05678 2997 ft 262 kts 136°
2026-04-23 12:13 20.11731 110.06946 2996 ft 262 kts 136°
2026-04-23 12:13 20.10335 110.08230 2995 ft 263 kts 136°
2026-04-23 12:13 20.08959 110.09495 2988 ft 252 kts 136°
2026-04-23 12:14 20.07663 110.10682 2986 ft 236 kts 136°
2026-04-23 12:14 20.06461 110.11783 2981 ft 222 kts 137°
2026-04-23 12:14 20.05268 110.12877 2988 ft 220 kts 136°
2026-04-23 12:14 20.03968 110.13745 2978 ft 226 kts 162°
2026-04-23 12:15 20.02375 110.13892 2997 ft 229 kts 177°
2026-04-23 12:15 20.00779 110.13869 2994 ft 228 kts 178°
2026-04-23 12:15 19.99185 110.13850 2994 ft 226 kts 177°
2026-04-23 12:15 19.97631 110.13840 2980 ft 213 kts 176°
2026-04-23 12:16 19.96182 110.13837 3021 ft 193 kts 176°
2026-04-23 12:16 19.94899 110.13861 3021 ft 181 kts 167°
2026-04-23 12:16 19.93841 110.14497 2987 ft 172 kts 124°
2026-04-23 12:16 19.93426 110.15672 3008 ft 170 kts 97°
2026-04-23 12:17 19.93353 110.16927 3007 ft 170 kts 90°
2026-04-23 12:17 19.93374 110.18175 3003 ft 169 kts 88°
2026-04-23 12:17 19.93405 110.19437 2998 ft 171 kts 88°
2026-04-23 12:17 19.93427 110.20698 2998 ft 171 kts 89°
2026-04-23 12:18 19.93440 110.21984 2998 ft 171 kts 89°
2026-04-23 12:18 19.93446 110.23239 3000 ft 172 kts 90°
2026-04-23 12:18 19.93449 110.24513 3004 ft 170 kts 90°
2026-04-23 12:18 19.93448 110.25796 3009 ft 171 kts 90°
2026-04-23 12:19 19.93447 110.27045 3007 ft 170 kts 90°
2026-04-23 12:19 19.93447 110.28320 2871 ft 170 kts 90°
2026-04-23 12:19 19.93446 110.29572 2655 ft 171 kts 90°
2026-04-23 12:19 19.93447 110.30846 2430 ft 168 kts 91°
2026-04-23 12:20 19.93449 110.32053 2202 ft 158 kts 91°
2026-04-23 12:20 19.93451 110.33182 1989 ft 147 kts 91°
2026-04-23 12:20 19.93453 110.34239 1833 ft 137 kts 91°
2026-04-23 12:20 19.93454 110.35241 1655 ft 134 kts 91°
2026-04-23 12:21 19.93456 110.36218 1497 ft 133 kts 91°
2026-04-23 12:21 19.93457 110.37208 1330 ft 133 kts 91°
2026-04-23 12:21 19.93459 110.38190 1160 ft 132 kts 91°
2026-04-23 12:21 19.93461 110.39174 985 ft 132 kts 91°
2026-04-23 12:22 19.93458 110.40160 801 ft 131 kts 91°
2026-04-23 12:22 19.93456 110.41132 635 ft 131 kts 89°
2026-04-23 12:22 19.93470 110.42107 476 ft 131 kts 89°
2026-04-23 12:22 19.93469 110.43064 302 ft 130 kts 90°
2026-04-23 12:23 19.93471 110.44044 148 ft 130 kts 89°
2026-04-23 12:23 19.93475 110.44980 72 ft 111 kts 89°
2026-04-23 12:23 19.93475 110.45615 71 ft 61 kts 87°
2026-04-23 12:23 19.93484 110.45926 73 ft 33 kts 84°
2026-04-23 12:24 19.93556 110.46143 73 ft 28 kts 63°
2026-04-23 12:24 19.93625 110.46236 75 ft 13 kts 34°
2026-04-23 12:24 19.93687 110.46293 76 ft 11 kts
2026-04-23 12:24 19.93762 110.46294 76 ft 10 kts
2026-04-23 12:25 19.93835 110.46294 77 ft 10 kts
2026-04-23 12:25 19.93911 110.46294 78 ft 10 kts 359°
2026-04-23 12:25 19.93983 110.46294 78 ft 9 kts
2026-04-23 12:25 19.94043 110.46285 77 ft 9 kts 336°
2026-04-23 12:26 19.94088 110.46230 77 ft 6 kts 286°
2026-04-23 12:26 19.94089 110.46188 77 ft 4 kts 255°
2026-04-23 12:26 19.94078 110.46159 77 ft 3 kts 248°
2026-04-23 12:26 19.94071 110.46141 77 ft 2 kts 246°
2026-04-23 12:27 19.94068 110.46134 77 ft 0 kts 245°